Back to catalog

ECHOSTAR 10

AliveCommunicationsGEO
NORAD 28935·PAYLOAD·🇺🇸 United States

Launched Feb 15, 2006 from Sea Launch Platform

Loading…

TLE

FreshSource: Space-Track

Epoch: Sep 14, 2026, 12:29 UTC

1 28935U 06003A   26257.52058617 -.00000064  00000-0  00000-0 0  9993
2 28935   0.0527 316.6465 0002063 173.5238 300.5562  1.00272225 75356

Track ECHOSTAR 10 in real time with AllMySat

Download on the App Store